Powrót do katalogu

COSMOS 1091

AktywnyMilitariaPO
NORAD 11320·PAYLOAD·🇷🇺 Russia

Wystrzelony Apr 7, 1979 z Plesetsk Cosmodrome

Loading…

Następne Przeloty (najbliższe 24 godziny)

TLE

ŚwieżeSource: Space-Track

Epoka: Sep 14, 2026, 11:19 UTC

1 11320U 79028A   26257.47156449  .00000030  00000-0  16058-4 0  9992
2 11320  82.9197  66.9904 0029103 275.0003 102.5035 13.74927363379405

Śledź COSMOS 1091 w czasie rzeczywistym z AllMySat

Download on the App Store